Preview of NWS' New Version of Forecast
This preview is not operational and should not be used for support decisions.

Regional Weather Roundup (RWR)

Issued by National Weather Service (NWS)

                            
000
ASPQ40 PGUM 180110
RWRPQ 
WEATHER ROUNDUP FOR THE MARIANAS AND MICRONESIA
NATIONAL WEATHER SERVICE TIYAN GU
1100 AM CHST THU APR 18 2019

GUZ001>004-180200-
MARIANA ISLANDS-
  
CITY           SKY/WX    TMP DP  RH WIND       PRES   REMARKS
GUAM AIRPORT   SUNNY     86  70  58 E13       29.96F HX  90           
ANDERSEN AFB   MOSUNNY   86  72  62 E13       29.97F HX  92           
ROTA AIRPORT   MOSUNNY   82  70  65 E18       29.95F                  
TINIAN AP      MOSUNNY   90  70  51 E9        29.95F HX  95           
SAIPAN AP      MOSUNNY   86  70  58 SE10G16   29.97F HX  90           

$$

PMZ161-180200-
REPUBLIC OF PALAU-
  
CITY           SKY/WX    TMP DP  RH WIND       PRES   REMARKS
KOROR AP       PTSUNNY   86  75  70 E9G16     29.91S HX  95           
KOROR WSO      NOT AVBL                                               

$$

PMZ171>174-180200-
FEDERATED STATES OF MICRONESIA-
  
CITY           SKY/WX    TMP DP  RH WIND       PRES   REMARKS
YAP AIRPORT    CLOUDY    81  77  89 VRB7      29.92R                  
CHUUK AP       CLOUDY    86  79  79 NE9       29.87F HX  99           
POHNPEI AP     NOT AVBL                                               
POHNPEI WSO    CLOUDY    86  77  74 E7        29.89F HX  97           
KOSRAE AP      NOT AVBL                                               

$$

PMZ181-180200-
REPUBLIC OF THE MARSHALL ISLANDS-
  
CITY           SKY/WX    TMP DP  RH WIND       PRES   REMARKS
KWAJALEIN AP   MOSUNNY   88  73  62 E16       29.86F HX  96           
MAJURO AP      NOT AVBL                                               
MAJURO WSO     PTSUNNY   84  77  79 E16       29.82F HX  94           

$$